CAPE
2118 2130 2324 2412 2388 2704 2888 2795 2730 2334 2161 2026 1966 1871 1831 1871 1682 1604 1577 1730 2104 2082 1927 1676 1766 1832 1752 1869 1856 1727 1784 1693 1734 1448 1635 1430 1422 1688 1795 1395 1442 1424 1286 1235 1281 1290 1217 1405 1340 1323 1042 813 711 800 60 0 0 0 0 0 0 0 0
1951 1952 1950 2149 2290 2436 2539 2368 2598 2390 2199 2105 2078 1898 1855 1785 1704 1757 1952 2114 1958 1791 1911 2054 2090 1755 1854 2018 2075 1652 1403 1479 2053 2449 1767 1376 1772 1626 1341 1215 1258 1231 1275 1293 1321 1306 1399 733 817 970 858 774 530 43 0 0 0 0 0 0 0 0 0
1854 1802 1829 2132 2242 2220 1942 2104 2258 2212 2294 2190 2218 2116 1991 1883 1810 1898 2054 1993 2012 2094 2142 2209 2042 1952 2149 2177 1960 1646 1741 1667 1490 1442 1392 1014 1109 1199 1101 1129 1128 1102 1119 1176 1192 1068 986 797 842 745 481 339 166 0 0 0 0 0 0 0 0 0 0
1697 1779 1780 1900 2038 1908 1887 1812 1796 1914 2048 2328 2286 2276 2153 2036 2000 2127 2046 2030 2055 2080 2042 1948 2033 2142 2162 2114 2010 1772 1347 1018 1060 1038 1174 661 680 809 861 874 942 964 987 1070 1023 1045 1146 948 1112 1150 1273 604 195 0 0 0 0 0 0 0 0 0 0
1636 1892 1954 1971 1939 1907 1870 1830 1856 1994 1912 2052 2189 1932 1949 1960 2085 2110 2122 2117 2084 2040 1897 1867 1962 2035 2060 1992 1713 1494 1144 945 979 1121 1098 1186 1178 834 781 812 838 842 897 956 1072 1050 796 926 842 629 357 132 8 0 0 0 0 0 0 0 0 0 0
1674 1915 2002 2071 1943 1920 1652 1670 1692 1660 1903 1982 1895 1748 1824 1924 2070 2108 2157 2266 2066 2007 1936 1890 1900 1928 1829 1609 1438 1315 1164 974 832 678 430 534 568 542 594 685 731 720 695 869 1095 890 805 810 699 528 247 239 0 0 0 0 0 0 0 0 0 0 0
1624 1959 2129 2026 1699 1590 1576 1326 1447 1325 1906 1988 1685 1804 1942 2037 2164 2118 2104 2012 1946 1948 1932 1887 1736 1725 1665 1264 1136 1060 714 598 482 586 634 652 660 642 703 765 840 792 876 782 761 802 800 774 570 330 286 265 242 94 0 0 0 0 0 0 0 0 0
1269 1330 1468 1482 1367 1362 1275 950 827 1141 1758 1426 1755 1790 1989 2086 2027 1924 1839 1744 1611 1593 1634 1636 1590 1494 1365 1124 907 605 765 782 789 816 793 795 806 834 812 821 829 836 725 700 723 472 412 418 370 345 310 309 296 171 0 0 0 0 0 0 0 0 0
1083 1147 1171 1061 982 1019 919 1055 1026 1028 962 1061 1578 1756 2094 2054 2116 2108 1926 1768 1825 1412 1141 1206 1266 1286 1163 949 880 872 882 955 1050 1075 1028 961 915 910 897 928 991 992 876 794 808 830 574 558 415 367 328 149 0 0 0 0 0 0 0 0 0 0 0
1023 1075 931 496 580 676 797 859 840 849 774 1015 1340 1733 2027 2120 2182 2204 2056 1928 1838 1430 1129 1304 856 1000 849 837 1105 1112 1044 1199 1266 1238 1201 1171 1125 1076 1072 1078 1197 1339 1176 1076 645 816 869 540 425 246 0 0 0 0 0 0 0 0 0 0 0 0 0
867 784 812 940 758 714 763 833 899 816 589 772 1186 1404 1985 1962 1973 2133 2013 1981 1900 1567 1425 1044 1144 1166 896 1106 1109 1139 1354 1438 1423 1403 1353 1305 1240 1229 1195 1122 1132 1328 1384 1284 1073 795 596 912 530 40 0 0 0 0 0 0 0 0 0 0 0 0 0
1002 1245 1375 1033 971 974 987 958 974 845 863 1000 870 1326 1768 1790 1810 1844 2034 2028 1746 1526 1195 1223 1580 1102 1017 977 1186 1345 1452 1480 1446 1428 1412 1392 1348 1265 1207 1185 1167 1195 1324 1466 1208 1146 930 366 194 32 0 0 0 0 0 0 0 0 0 0 0 0 0
1481 1608 1345 1270 1230 1272 1055 1036 1082 966 970 966 834 1246 1848 1438 1736 1701 1658 1730 1622 1505 1170 1614 1405 1048 915 1137 1346 1354 1397 1367 1430 1480 1466 1394 1389 1404 1317 1302 1330 1381 1406 1490 1392 1275 945 110 25 0 0 0 0 0 0 0 0 0 0 0 0 0 0
1524 1577 1372 1175 1252 1276 1197 1216 1197 1050 996 819 979 1218 1530 1583 1124 1260 1344 1320 1411 1650 1570 1674 1140 1005 934 1295 1246 1322 1392 1442 1488 1529 1557 1593 1578 1589 1629 1577 1555 1524 1527 1605 1268 1034 529 28 0 0 0 0 0 0 0 0 0 0 0 0 0 0 0
1325 1380 1332 1327 1123 1000 983 1254 1497 1230 1013 1033 1126 1115 1462 1438 1180 1227 1350 1355 1484 1574 1952 1775 922 1122 1048 1341 1267 1350 1483 1516 1652 1870 2104 1812 1716 1704 1697 1745 1733 1727 1556 1366 1291 1318 129 0 0 0 0 0 0 0 0 0 0 0 0 0 0 0 0
1232 1185 1162 1087 1054 1243 1392 1155 1075 1128 1201 1171 959 1134 1337 1302 1096 1088 1334 1345 1258 1510 2254 1881 1398 1572 1198 1494 1402 1562 1618 1754 1925 1994 2058 2074 2014 1869 1828 1926 1603 1161 953 899 1002 874 336 0 0 0 0 0 0 0 0 0 1 0 0 0 0 0 0
1192 1064 966 1454 1280 1317 1485 1403 1090 1076 1298 1246 1124 1180 1110 1018 965 1137 1212 1324 1432 2003 2328 1820 1162 1509 1267 1617 1581 1656 1699 1750 1845 2020 2118 2179 2195 2146 2028 1359 1054 866 730 638 695 644 18 0 0 0 0 0 0 0 0 0 0 0 0 0 0 4 0
998 1140 1092 1136 1312 1449 1576 1663 1193 1341 1601 1552 1308 1120 1243 1212 1144 1286 1352 1576 1591 2119 1865 1370 926 1080 1642 1745 1787 1840 1853 1954 2071 2130 2215 2293 2000 1657 1303 1110 824 578 446 375 405 116 0 0 0 0 0 0 0 0 0 0 0 0 0 0 0 6 0
1250 1140 1086 1200 1415 1366 1400 1409 1389 1394 1534 1682 1586 1350 1294 1138 1102 1268 1272 1482 1775 1962 1698 1279 837 1026 1317 1680 2053 2088 2198 2234 2092 2137 2240 2094 1722 1376 1077 843 554 362 374 526 391 0 0 0 0 0 0 0 0 0 0 0 0 0 0 0 0 0 0
1091 1328 1295 1328 1268 1379 1613 1441 1485 1522 1520 1536 1682 1550 969 1314 1031 1245 1484 1704 2012 1972 1549 1149 880 942 1238 1235 1902 2328 2404 2316 2074 1966 2097 1985 1578 1038 945 904 747 736 741 350 0 0 0 0 0 0 0 0 0 0 0 0 0 0 0 0 0 0 0
1237 1202 1333 1244 1320 1434 1291 918 1019 1229 1488 1621 1829 1791 1362 1137 1474 1172 1428 1716 1928 1844 1522 1360 1181 995 1184 1110 1302 2235 2400 2316 1932 1895 2011 1836 1273 1064 1095 1030 869 552 133 0 0 0 0 0 0 0 0 0 0 0 0 0 0 0 0 0 0 0 0
1444 1517 1464 1410 1364 1407 1434 1025 1046 982 1132 1437 1567 1734 1643 1548 1494 1432 1547 1757 1786 1640 1479 1394 1084 1017 1239 1137 1194 1876 2286 2260 1882 1694 1896 1808 1576 1247 1236 1124 834 248 59 0 0 0 0 0 0 0 0 0 0 0 0 0 0 0 0 0 0 0 0
1289 1550 1560 1384 1338 1499 1588 1152 1082 1475 1725 1464 1129 1182 1546 1682 1710 1460 1618 1721 1744 1714 1649 1413 1375 1240 1206 1194 1206 1495 1887 1732 1556 1634 1437 1574 1346 1124 1086 764 536 262 2 0 0 0 0 0 0 0 0 0 0 0 0 0 0 0 0 0 0 0 0
1831 1583 1694 1652 1432 1500 1621 1337 1398 1883 1918 1503 1245 1368 1607 1795 1819 1531 1794 1904 1939 2050 1915 1738 1496 1496 1483 1484 1391 1154 1428 1648 1341 1234 1395 1250 1012 1212 1131 772 438 265 12 0 0 0 0 0 0 0 0 0 0 0 0 0 0 0 0 0 0 0 0
1231 1615 1728 1704 1682 1668 1716 1620 1652 1846 1764 1560 1379 1138 1377 1660 1715 1645 1865 2214 2219 1853 1822 1888 1626 1462 1339 1492 1405 1090 990 1414 1217 1194 1012 1050 936 986 589 461 378 270 0 0 0 0 0 0 0 0 0 0 0 0 0 0 0 0 0 0 0 0 0
1092 1804 1726 1751 1678 1878 1713 1701 1716 1685 1510 1516 1580 1582 1545 1440 1814 1999 2074 2102 2182 2224 2091 1492 1419 1522 1510 1490 1316 1213 893 1235 1275 1207 1312 908 948 868 551 485 365 177 0 0 0 0 0 0 0 0 0 0 0 0 18 0 0 0 0 0 0 0 0
1032 1092 1984 1796 1870 2290 2041 2094 1900 1819 1866 1805 2032 2113 1993 1657 1855 2134 2226 2194 2308 2350 2244 1960 1826 1572 1446 1556 1384 1192 1210 1481 1473 1560 1390 973 1015 654 583 498 254 0 0 0 0 0 0 0 0 0 0 0 0 0 0 0 0 0 0 0 0 0 0
2360 1953 1994 2932 2998 2755 2692 2524 2663 2507 2394 2509 2465 2408 2245 2069 1841 1854 1998 2210 2395 2475 2624 2492 2466 2172 1277 1310 1350 1353 1490 1592 1608 1512 1247 1202 897 689 628 464 185 0 0 0 0 0 0 0 0 0 0 0 0 0 0 1 13 0 0 0 0 0 0
3058 2788 2442 2807 2979 2968 2994 3147 3066 2702 2441 2574 2501 2349 2321 2249 2178 2047 1946 1868 1914 2192 2470 2590 2442 2179 1877 1670 1474 1643 1558 1504 1354 1344 1425 1202 832 740 581 146 0 0 0 0 0 0 0 0 0 0 0 0 0 0 0 0 14 0 0 0 0 0 0
3011 3192 3422 3585 3690 3364 3348 3192 3124 2930 2762 2457 2335 2203 2262 2348 2260 2204 2224 2196 2075 2214 2397 2434 2337 2213 2036 1738 1696 1626 1532 1522 1526 1474 1405 1065 835 696 394 0 0 0 0 0 0 0 0 0 0 0 0 0 0 0 0 0 0 0 0 0 0 0 0
2589 2546 2422 2450 2829 4152 3915 3220 3031 2975 2855 2598 2385 2060 2017 2275 2084 2128 2290 2219 2264 2406 2424 2404 2230 2302 2077 1819 1702 1670 1652 1636 1511 1422 1228 976 778 617 0 0 0 0 0 0 0 0 0 0 0 0 0 0 0 0 0 0 0 0 0 0 0 0 0
2285 2266 2154 2200 2687 3688 3210 3351 3260 3110 2927 2622 2290 2085 1928 2075 2208 2168 2327 2257 2164 2313 2436 2417 2391 2246 2086 1859 1752 1801 1745 1580 1522 1414 1212 953 812 534 0 0 0 0 0 0 0 0 0 0 0 0 0 0 0 0 0 0 0 0 0 0 0 0 0
2188 2210 2203 2328 2610 3726 2405 2918 3180 3356 3234 2738 2292 2152 2042 2016 2231 2256 2189 2214 2200 2235 2438 2549 2440 2347 2084 1946 1826 1808 1698 1656 1556 1430 1214 1023 841 518 0 0 0 0 0 0 0 0 0 0 0 0 0 0 0 0 0 0 0 0 0 0 0 0 0
2228 2298 2175 2314 2549 3224 2351 2690 3090 3019 3108 2965 2417 2282 2284 2145 2145 2238 2332 2352 2442 2464 2528 2590 2519 2400 2160 2030 1916 1757 1618 1655 2010 1624 1219 1080 821 496 0 0 0 0 0 0 0 0 0 0 0 0 0 0 0 0 0 0 0 0 0 0 0 0 0
2224 2324 2224 2200 2411 2624 2217 2418 2536 2646 2881 2984 3054 2478 2418 2359 2343 2329 2368 2590 2548 2588 2574 2459 2378 2282 2220 2039 1797 1736 1569 1601 1912 1414 1250 1070 757 464 155 0 0 0 0 0 0 0 0 0 0 0 0 0 0 0 0 0 0 0 0 0 0 0 0
2073 2172 2268 2250 2301 1665 1602 1932 2466 2124 2080 2732 2897 2958 2624 2628 2610 2606 2537 2498 2814 2798 2519 2511 2384 2334 2196 1968 1724 1712 1576 1501 1628 1468 1353 1142 734 560 414 0 0 0 0 0 0 0 0 0 0 0 0 0 0 0 0 0 0 0 0 0 0 0 0
1576 1539 1686 2122 2302 1583 1519 1506 2005 1865 1763 1880 2556 3008 3009 2700 2774 2754 2690 2563 2593 2720 2612 2500 2511 2378 2162 1900 1733 1668 1525 1391 1434 1407 1388 1306 1059 787 564 193 0 0 0 0 0 0 0 0 0 0 0 0 0 0 0 0 0 0 0 0 0 0 0
1585 1951 2026 1853 2088 1898 1743 1703 1616 1572 1744 1846 2164 2971 2944 3010 3210 3072 2718 2630 2638 2604 2568 2458 2459 2382 2149 1882 1728 1630 1368 1305 1366 1267 1101 1010 794 449 274 96 0 0 0 0 0 0 0 0 0 0 0 0 0 0 0 0 0 0 0 0 0 0 0
Wind_Speed
8 8 8 8 8 8 8 9 9 8 7 8 10 11 11 10 10 9 8 6 4 3 2 2 3 3 3 3 3 4 5 6 8 9 10 12 14 15 15 14 14 13 12 14 13 14 13 12 11 10 11 13 13 13 nan nan nan nan nan nan nan nan nan
9 9 9 8 7 7 8 8 9 8 7 8 9 10 10 10 10 9 7 6 5 5 3 3 3 3 4 3 4 5 6 6 8 10 11 12 14 14 14 13 13 13 14 14 14 12 12 11 13 13 12 12 13 nan nan nan nan nan nan nan nan nan nan
10 9 8 6 6 7 7 7 7 7 8 8 8 9 10 10 8 6 6 5 6 5 4 4 5 5 4 4 5 6 5 6 7 8 9 13 14 14 13 14 13 14 13 13 13 13 12 13 13 13 13 13 14 nan nan nan nan nan nan nan nan nan nan
7 8 7 6 6 7 8 8 7 4 4 5 8 11 12 12 11 8 5 3 3 4 4 4 6 6 5 6 6 6 7 8 10 10 10 13 13 12 12 12 12 12 12 13 12 12 12 13 13 12 13 13 14 nan nan nan nan nan nan nan nan nan nan
7 8 9 8 8 8 8 9 7 5 3 3 7 9 11 11 9 7 5 3 3 3 4 6 6 7 7 7 7 7 7 6 6 7 11 13 13 12 11 12 11 11 11 13 13 13 13 13 13 13 14 17 nan nan nan nan nan nan nan nan nan nan nan
11 10 9 9 9 9 8 7 8 7 4 5 6 6 6 5 4 5 5 4 3 2 4 5 6 6 7 7 7 7 7 6 8 10 13 14 13 13 12 11 11 11 11 13 14 14 14 15 15 16 18 20 nan nan nan nan nan nan nan nan nan nan nan
15 13 11 16 19 20 16 12 15 13 6 4 5 6 5 4 4 4 3 4 4 5 4 6 5 8 7 8 8 8 9 10 13 12 13 15 14 14 13 12 11 11 12 13 14 15 16 16 17 18 19 21 22 nan nan nan nan nan nan nan nan nan nan
17 19 21 25 27 28 25 18 16 8 9 11 7 8 7 6 6 5 4 4 5 4 6 7 6 8 9 10 10 9 10 12 13 13 15 16 14 14 12 12 12 11 14 14 12 14 17 18 18 20 21 22 22 23 nan nan nan nan nan nan nan nan nan
20 22 25 23 21 23 25 23 21 17 14 8 8 3 6 5 6 4 2 2 3 5 5 6 9 10 10 10 10 11 11 12 13 14 15 16 15 14 13 12 12 12 14 14 14 15 17 19 19 21 22 22 nan nan nan nan nan nan nan nan nan nan nan
22 23 23 25 22 21 23 20 19 17 11 10 12 3 3 6 6 5 3 2 3 6 5 5 8 9 10 10 11 11 12 13 14 15 15 15 14 15 13 13 12 11 13 13 14 15 15 18 20 21 nan nan nan nan nan nan nan nan nan nan nan nan nan
21 23 23 23 23 23 23 23 21 18 14 8 10 9 4 8 8 8 6 5 6 6 6 6 5 8 9 11 11 11 12 12 13 15 15 15 14 14 13 13 12 12 13 13 14 14 15 17 19 nan nan nan nan nan nan nan nan nan nan nan nan nan nan
20 21 24 25 23 24 30 30 27 21 18 11 10 9 7 8 10 10 8 7 6 7 8 8 7 10 12 12 13 12 13 13 13 14 15 15 14 14 14 13 14 13 14 15 15 15 15 17 18 nan nan nan nan nan nan nan nan nan nan nan nan nan nan
21 23 26 27 27 27 29 34 35 29 23 17 14 17 14 8 13 10 8 7 6 8 10 10 13 14 15 16 16 15 15 15 15 15 15 16 16 15 15 15 14 15 16 16 17 17 16 16 nan nan nan nan nan nan nan nan nan nan nan nan nan nan nan
23 22 20 21 25 29 33 37 33 27 21 19 19 19 16 9 13 15 8 5 1 7 10 11 14 15 16 17 18 17 17 16 16 16 16 16 16 16 16 15 16 17 17 18 19 20 19 nan nan nan nan nan nan nan nan nan nan nan nan nan nan nan nan
23 21 22 22 25 27 29 34 31 19 22 31 32 25 22 19 16 18 18 12 7 8 11 11 12 12 14 16 17 17 17 17 17 16 17 17 17 17 16 16 16 17 17 19 21 22 21 nan nan nan nan nan nan nan nan nan nan nan nan nan nan nan nan
21 20 21 20 20 26 31 33 30 19 21 30 32 28 26 22 16 16 14 10 11 9 8 10 11 10 12 13 16 16 17 17 17 18 17 17 17 17 16 16 16 17 18 20 21 21 21 nan nan nan nan nan nan nan nan nan nan nan nan nan nan nan nan
19 18 19 25 24 24 28 31 31 28 28 32 35 36 32 24 20 17 12 14 16 13 13 13 10 11 14 14 14 16 17 18 18 18 17 18 18 17 18 17 17 17 18 19 20 22 nan nan nan nan nan nan nan nan nan nan nan nan nan nan nan nan nan
17 23 23 23 23 24 26 28 32 31 31 31 31 32 29 26 22 17 16 20 21 18 19 19 13 9 14 17 16 15 16 16 17 17 17 18 19 19 18 17 17 17 17 19 21 22 nan nan nan nan nan nan nan nan nan nan nan nan nan nan nan nan nan
23 23 22 22 24 26 29 30 31 37 40 37 33 29 25 25 22 18 20 23 20 19 16 13 16 12 9 11 17 16 15 15 15 16 17 18 20 20 19 19 18 17 16 18 21 nan nan nan nan nan nan nan nan nan nan nan nan nan nan nan nan nan nan
21 22 21 20 25 28 28 28 28 33 37 34 28 24 24 24 24 19 21 21 17 17 15 11 14 17 12 6 10 16 18 19 18 19 19 19 20 20 19 20 19 17 17 20 nan nan nan nan nan nan nan nan nan nan nan nan nan nan nan nan nan nan nan
18 20 21 23 24 23 23 26 25 24 27 28 30 25 24 23 20 21 21 20 17 15 14 13 14 17 18 20 20 18 22 23 23 22 21 21 21 19 18 19 18 18 19 nan nan nan nan nan nan nan nan nan nan nan nan nan nan nan nan nan nan nan nan
15 20 21 21 23 21 22 25 27 27 29 28 28 27 24 23 24 23 23 21 19 17 15 12 13 16 18 21 21 19 22 25 23 23 23 23 21 19 17 18 18 19 nan nan nan nan nan nan nan nan nan nan nan nan nan nan nan nan nan nan nan nan nan
15 15 16 17 19 20 21 20 22 25 25 24 25 26 25 23 24 24 23 22 19 16 17 16 13 12 19 22 21 22 22 21 17 16 19 21 20 18 16 16 16 16 nan nan nan nan nan nan nan nan nan nan nan nan nan nan nan nan nan nan nan nan nan
11 13 13 16 16 17 16 17 19 20 21 22 22 22 23 23 22 21 18 17 18 19 19 18 16 12 15 23 24 26 23 23 16 14 12 10 13 16 14 13 13 13 nan nan nan nan nan nan nan nan nan nan nan nan nan nan nan nan nan nan nan nan nan
7 11 17 17 20 19 18 17 18 20 18 18 19 19 20 20 21 21 19 17 14 16 20 23 22 22 25 27 25 19 19 20 18 17 16 12 7 12 13 13 14 13 nan nan nan nan nan nan nan nan nan nan nan nan nan nan nan nan nan nan nan nan nan
11 12 13 15 15 17 18 18 19 19 16 17 18 20 19 20 21 22 23 23 21 22 26 27 29 26 25 24 22 25 25 21 18 15 14 15 12 12 15 13 12 13 nan nan nan nan nan nan nan nan nan nan nan nan nan nan nan nan nan nan nan nan nan
10 13 16 17 17 18 19 18 17 17 18 17 16 19 19 20 22 24 23 23 24 25 27 30 33 32 27 25 25 23 21 19 17 15 14 14 14 15 13 12 14 nan nan nan nan nan nan nan nan nan nan nan nan nan nan nan nan nan nan nan nan nan nan
10 9 12 17 21 20 19 18 16 14 15 16 17 19 20 20 20 20 21 21 22 22 21 23 29 31 33 30 28 23 17 12 10 9 12 15 14 13 12 12 14 nan nan nan nan nan nan nan nan nan nan nan nan nan nan nan nan nan nan nan nan nan nan
15 14 14 14 15 16 18 17 16 16 16 17 17 18 18 19 19 18 17 18 20 21 22 24 27 29 31 31 30 24 18 14 14 15 14 13 12 14 14 15 nan nan nan nan nan nan nan nan nan nan nan nan nan nan nan nan nan nan nan nan nan nan nan
15 15 14 13 14 15 16 17 17 17 17 18 19 19 19 20 19 19 18 20 20 23 26 28 28 26 23 22 21 20 19 18 15 12 10 12 13 15 16 nan nan nan nan nan nan nan nan nan nan nan nan nan nan nan nan nan nan nan nan nan nan nan nan
14 15 15 14 11 11 13 15 18 19 20 19 21 21 21 22 22 21 21 20 21 25 29 30 27 21 16 14 12 11 11 10 10 10 11 13 16 18 nan nan nan nan nan nan nan nan nan nan nan nan nan nan nan nan nan nan nan nan nan nan nan nan nan
13 13 14 13 11 8 9 11 16 19 19 19 21 21 21 22 23 22 20 21 23 26 27 27 22 16 13 12 11 11 10 10 11 12 14 16 17 20 nan nan nan nan nan nan nan nan nan nan nan nan nan nan nan nan nan nan nan nan nan nan nan nan nan
13 14 14 13 9 9 6 8 10 14 19 20 19 20 19 21 21 20 18 20 23 26 26 23 18 14 12 12 12 11 11 13 13 13 15 17 18 18 nan nan nan nan nan nan nan nan nan nan nan nan nan nan nan nan nan nan nan nan nan nan nan nan nan
14 13 12 11 10 9 8 7 8 11 13 18 19 19 18 18 19 18 18 18 21 23 23 19 16 15 14 13 12 12 12 13 15 15 15 16 17 19 nan nan nan nan nan nan nan nan nan nan nan nan nan nan nan nan nan nan nan nan nan nan nan nan nan
13 12 11 10 10 11 10 9 9 10 13 14 17 20 18 17 17 16 17 17 19 21 20 17 15 15 15 14 12 13 11 13 11 13 15 14 13 13 14 nan nan nan nan nan nan nan nan nan nan nan nan nan nan nan nan nan nan nan nan nan nan nan nan
11 11 9 10 12 12 11 9 9 9 11 15 16 18 18 16 16 16 15 15 16 19 19 16 14 14 15 15 14 14 13 12 12 13 14 15 16 17 15 nan nan nan nan nan nan nan nan nan nan nan nan nan nan nan nan nan nan nan nan nan nan nan nan
11 10 8 9 11 10 11 9 9 9 10 12 15 16 18 16 15 15 14 14 15 17 18 16 15 15 14 14 14 16 15 15 14 14 15 15 16 16 19 16 nan nan nan nan nan nan nan nan nan nan nan nan nan nan nan nan nan nan nan nan nan nan nan
11 12 11 12 12 12 11 10 9 10 10 12 14 16 16 15 14 15 14 14 14 15 16 17 17 17 16 15 14 15 16 16 16 16 17 15 15 16 18 nan nan nan nan nan nan nan nan nan nan nan nan nan nan nan nan nan nan nan nan nan nan nan nan
Wind_Direction
20 17 23 13 2 355 346 338 333 327 321 319 320 315 313 305 291 277 265 258 251 243 250 269 251 247 251 249 262 288 309 324 326 325 324 331 334 327 325 329 326 330 332 333 336 333 331 330 331 321 305 306 302 295 nan nan nan nan nan nan nan nan nan
25 25 19 13 2 351 343 335 324 317 325 327 330 328 327 322 306 288 276 266 275 288 285 278 280 283 289 296 309 316 323 332 332 328 322 316 322 327 327 327 326 330 333 336 334 327 319 315 315 311 310 302 297 nan nan nan nan nan nan nan nan nan nan
13 15 13 9 356 341 327 313 306 314 329 346 355 358 5 5 354 321 293 279 270 265 262 284 303 310 310 313 317 333 337 344 342 335 326 325 326 326 326 326 328 331 333 328 321 317 315 308 308 312 308 301 301 nan nan nan nan nan nan nan nan nan nan
349 348 347 337 324 320 313 306 297 296 321 350 8 16 21 25 24 13 354 321 296 281 288 307 310 317 319 323 330 339 340 339 340 334 325 322 322 322 321 325 323 323 319 320 318 313 310 306 306 303 301 294 289 nan nan nan nan nan nan nan nan nan nan
285 283 283 282 294 295 296 295 294 301 335 0 2 16 26 28 31 35 40 35 6 345 340 337 325 323 320 327 336 333 331 319 300 302 317 321 322 319 322 323 320 318 321 309 307 306 304 302 300 297 290 295 nan nan nan nan nan nan nan nan nan nan nan
275 266 264 272 276 272 266 276 289 297 284 312 342 355 6 14 40 39 39 32 20 357 336 319 313 312 328 334 325 313 300 292 296 297 302 310 315 312 311 314 314 315 309 310 309 308 309 304 300 292 293 296 nan nan nan nan nan nan nan nan nan nan nan
290 286 283 282 282 277 260 216 196 182 202 275 277 274 281 303 327 344 355 359 339 328 325 323 333 330 335 321 311 296 293 300 302 309 309 305 308 305 303 302 304 305 307 306 304 308 308 304 300 299 297 297 299 nan nan nan nan nan nan nan nan nan nan
314 320 326 329 326 320 322 317 301 302 172 167 233 261 280 287 283 292 321 340 314 293 302 311 324 335 321 315 311 307 316 308 307 307 305 302 302 300 301 300 300 305 301 303 310 309 308 306 306 302 299 298 298 300 nan nan nan nan nan nan nan nan nan
331 335 342 342 337 327 323 318 316 321 318 293 156 274 287 284 290 305 351 328 316 319 332 326 329 321 319 319 322 328 317 311 309 307 306 306 309 308 311 311 308 310 308 310 310 307 307 304 300 299 298 298 nan nan nan nan nan nan nan nan nan nan nan
334 341 350 346 342 334 322 309 305 306 285 267 280 210 318 322 316 318 352 352 3 353 338 326 319 313 317 323 325 322 317 313 319 311 314 314 319 316 322 319 319 320 314 315 311 306 305 304 302 298 nan nan nan nan nan nan nan nan nan nan nan nan nan
341 344 346 347 351 339 325 314 304 303 295 254 252 298 332 322 321 324 340 354 10 0 345 334 327 315 318 317 316 317 315 319 321 320 318 320 322 322 323 319 320 323 319 317 312 312 309 305 302 nan nan nan nan nan nan nan nan nan nan nan nan nan nan
342 339 343 352 354 341 337 329 316 316 316 296 260 254 261 284 301 310 318 348 1 352 346 335 331 330 329 321 316 320 322 324 322 321 322 322 324 322 320 317 319 321 323 322 320 318 316 311 307 nan nan nan nan nan nan nan nan nan nan nan nan nan nan
338 341 345 350 345 336 334 333 326 320 320 311 282 253 237 229 241 240 281 324 355 358 347 343 335 341 335 326 324 324 326 324 326 327 325 324 323 320 317 318 321 322 325 328 325 323 321 314 nan nan nan nan nan nan nan nan nan nan nan nan nan nan nan
338 334 342 345 337 338 332 326 319 301 296 313 318 299 303 324 298 286 243 211 206 4 353 342 338 339 333 326 326 324 324 323 325 325 322 321 321 320 320 324 325 327 330 330 326 325 321 nan nan nan nan nan nan nan nan nan nan nan nan nan nan nan nan
332 334 343 340 338 327 313 305 300 299 309 330 338 335 331 333 330 312 315 324 347 32 354 340 331 332 324 320 322 324 323 322 321 320 319 321 320 320 323 325 326 324 326 329 330 325 319 nan nan nan nan nan nan nan nan nan nan nan nan nan nan nan nan
326 327 334 324 296 292 309 322 328 339 327 332 337 332 330 330 318 305 310 326 336 336 317 319 320 320 314 317 318 321 322 323 322 319 319 320 321 327 328 324 320 319 320 326 329 324 318 nan nan nan nan nan nan nan nan nan nan nan nan nan nan nan nan
325 317 291 273 294 321 339 342 345 349 339 336 334 333 333 326 312 315 331 345 339 315 275 261 285 312 319 321 321 329 330 327 329 325 323 323 321 324 325 323 320 317 318 322 327 320 nan nan nan nan nan nan nan nan nan nan nan nan nan nan nan nan nan
300 276 287 309 319 333 348 347 353 355 353 348 344 344 343 334 328 337 357 357 348 333 310 303 284 296 320 324 328 335 337 332 332 327 321 317 316 317 322 322 318 317 318 318 318 320 nan nan nan nan nan nan nan nan nan nan nan nan nan nan nan nan nan
291 305 309 324 331 341 350 351 358 2 5 5 4 357 350 350 355 1 352 353 345 338 330 312 287 272 282 314 338 343 340 334 332 327 321 317 313 314 318 320 316 316 315 316 321 nan nan nan nan nan nan nan nan nan nan nan nan nan nan nan nan nan nan
297 306 319 332 343 351 355 358 3 4 7 11 9 5 358 356 5 2 350 348 347 352 343 331 316 305 286 294 349 342 336 334 332 329 325 319 313 313 315 315 316 320 323 319 nan nan nan nan nan nan nan nan nan nan nan nan nan nan nan nan nan nan nan
300 312 328 340 348 354 3 4 4 359 0 8 12 9 4 4 2 356 355 356 357 353 349 351 344 340 340 359 2 349 336 331 327 327 326 319 313 313 315 316 315 312 315 nan nan nan nan nan nan nan nan nan nan nan nan nan nan nan nan nan nan nan nan
311 325 335 343 347 0 10 7 355 1 5 1 356 359 2 -0 356 355 360 2 3 350 346 347 350 351 3 10 9 356 343 331 320 319 321 317 312 312 316 315 312 315 nan nan nan nan nan nan nan nan nan nan nan nan nan nan nan nan nan nan nan nan nan
319 330 339 345 350 3 10 8 350 357 354 354 352 348 350 352 353 354 355 5 4 346 335 344 349 349 11 16 8 356 335 318 300 299 310 314 314 314 316 314 314 320 nan nan nan nan nan nan nan nan nan nan nan nan nan nan nan nan nan nan nan nan nan
323 334 346 348 351 2 3 7 349 352 352 348 347 346 345 346 349 350 350 4 2 342 333 338 345 351 20 20 4 354 328 311 303 291 279 297 318 319 321 316 315 318 nan nan nan nan nan nan nan nan nan nan nan nan nan nan nan nan nan nan nan nan nan
316 329 347 350 347 352 356 3 347 346 351 350 349 343 341 341 344 346 346 359 6 347 341 342 347 2 16 13 358 338 312 315 317 315 321 321 335 329 324 324 323 326 nan nan nan nan nan nan nan nan nan nan nan nan nan nan nan nan nan nan nan nan nan
298 313 331 344 344 345 350 349 346 341 348 2 350 341 342 346 346 350 348 352 355 357 359 348 349 355 7 354 336 337 341 327 321 319 323 324 338 339 333 336 328 326 nan nan nan nan nan nan nan nan nan nan nan nan nan nan nan nan nan nan nan nan nan
310 325 338 340 344 344 342 344 348 352 354 6 353 346 345 347 349 352 352 353 359 4 357 346 343 341 343 331 338 334 326 327 333 335 332 332 348 341 343 341 333 nan nan nan nan nan nan nan nan nan nan nan nan nan nan nan nan nan nan nan nan nan nan
271 284 324 340 342 342 338 341 344 352 351 350 347 349 352 351 354 353 353 353 2 3 353 344 337 331 324 327 328 330 335 338 331 330 344 352 351 340 346 346 340 nan nan nan nan nan nan nan nan nan nan nan nan nan nan nan nan nan nan nan nan nan nan
272 278 294 319 337 343 336 335 345 353 354 347 350 353 356 354 360 360 358 0 4 357 352 346 336 331 322 324 327 331 336 341 355 2 359 355 351 349 349 350 nan nan nan nan nan nan nan nan nan nan nan nan nan nan nan nan nan nan nan nan nan nan nan
286 292 302 315 331 345 341 339 347 350 358 347 349 354 357 358 3 2 2 10 3 355 350 344 339 335 331 330 331 336 346 358 1 360 357 356 356 354 353 nan nan nan nan nan nan nan nan nan nan nan nan nan nan nan nan nan nan nan nan nan nan nan nan
290 296 302 309 319 330 340 346 349 352 356 356 350 353 358 1 5 5 6 5 1 357 352 348 345 346 347 349 355 357 3 6 6 2 1 3 358 357 nan nan nan nan nan nan nan nan nan nan nan nan nan nan nan nan nan nan nan nan nan nan nan nan nan
286 295 298 304 310 324 334 335 343 351 358 2 354 352 356 1 4 6 5 356 359 359 356 354 356 5 15 21 23 24 22 12 10 3 1 2 4 359 nan nan nan nan nan nan nan nan nan nan nan nan nan nan nan nan nan nan nan nan nan nan nan nan nan
296 298 298 299 315 326 327 332 338 344 355 4 4 353 355 1 7 9 4 360 359 359 359 2 11 23 32 35 33 27 21 9 8 2 358 357 359 356 nan nan nan nan nan nan nan nan nan nan nan nan nan nan nan nan nan nan nan nan nan nan nan nan nan
282 285 291 304 314 322 320 323 337 343 347 360 7 357 354 359 7 8 4 -0 358 358 360 7 15 20 28 32 27 18 15 10 6 355 351 353 352 352 nan nan nan nan nan nan nan nan nan nan nan nan nan nan nan nan nan nan nan nan nan nan nan nan nan
276 290 303 309 325 322 320 334 339 346 345 350 358 357 355 358 5 3 1 359 355 356 357 4 11 11 16 23 20 12 8 6 356 345 344 340 337 346 356 nan nan nan nan nan nan nan nan nan nan nan nan nan nan nan nan nan nan nan nan nan nan nan nan
289 299 318 331 322 321 318 333 338 350 350 353 350 350 354 357 358 359 358 354 349 352 353 355 355 360 6 12 9 3 352 347 344 338 340 340 340 343 346 nan nan nan nan nan nan nan nan nan nan nan nan nan nan nan nan nan nan nan nan nan nan nan nan
299 307 319 321 316 316 323 333 342 345 353 356 352 350 349 351 353 353 355 352 346 347 352 348 347 351 353 358 359 350 338 338 336 335 335 339 341 344 344 346 nan nan nan nan nan nan nan nan nan nan nan nan nan nan nan nan nan nan nan nan nan nan nan
299 306 312 312 319 327 328 334 340 347 357 359 353 353 351 351 348 348 349 348 347 341 342 345 344 347 349 351 352 341 331 335 334 332 331 333 337 343 347 nan nan nan nan nan nan nan nan nan nan nan nan nan nan nan nan nan nan nan nan nan nan nan nan